Opa Locka, FL

5:21 AM EDT on October 14, 2019 (GMT -0400)
Opa Locka

Weather History for KOPF - September, 2019

Change the Weather History Date:

Friday, September 20, 2019

  Actual Average Record
Temperature  
Mean Temperature 80 °F -  
Max Temperature 87 °F 88 °F 95 °F (1987)
Min Temperature 75 °F 75 °F 69 °F (1955)
Cooling Degree Days 16    
Growing Degree Days 30 (Base 50)    
Moisture  
Dew Point 72 °F    
Average Humidity 73    
Maximum Humidity 85    
Minimum Humidity 61    
Precipitation  
Precipitation 0.14 in - - ()
Sea Level Pressure  
Sea Level Pressure 30.01 in    
Wind  
Wind Speed 14 mph ()    
Max Wind Speed 26 mph    
Max Gust Speed 36 mph    
Visibility 10.0 miles    
Events Rain    
Averages and records for this station are not official NWS values.
T = Trace of Precipitation, MM = Missing Value Source: Averaged Metar Reports

Daily Weather History Graph

Daily Weather History Graph

Search for Another Location

Airport or City:

Astronomy

Sep. 20, 2019 Rise Set
Actual Time 7:08 AM EDT 7:19 PM EDT
Civil Twilight 6:45 AM EDT 7:42 PM EDT
Nautical Twilight 6:18 AM EDT 8:09 PM EDT
Astronomical Twilight 5:51 AM EDT 8:36 PM EDT
Moon 11:42 PM EDT (9/20) 12:39 PM EDT (9/20)
Length of Visible Light 12h 57m
Length of Day
12h 11m
Waning Gibbous, 65% of the Moon is Illuminated
Sep 20
Waning Gibbous
Sep 21
Last Quarter
Sep 28
New
Oct 5
First Quarter
Oct 13
Full

Hourly Weather History & Observations

Time (EDT) Temp. Heat Index Dew Point Humidity Pressure Visibility Wind Dir Wind Speed Gust Speed Precip Events Conditions
12:53 AM 79.0 °F - 70.0 °F 74% 29.98 in 10.0 mi ENE 15.0 mph - N/A   Clear
1:53 AM 80.1 °F 82.7 °F 68.0 °F 67% 29.97 in 10.0 mi ENE 11.5 mph - N/A   Clear
2:53 AM 80.1 °F 82.7 °F 68.0 °F 67% 29.96 in 10.0 mi ENE 13.8 mph - N/A   Partly Cloudy
3:53 AM 79.0 °F - 70.0 °F 74% 29.95 in 10.0 mi ENE 5.8 mph - N/A   Clear
4:53 AM 80.1 °F 82.9 °F 69.1 °F 69% 29.94 in 10.0 mi ENE 12.7 mph - N/A   Partly Cloudy
5:53 AM 80.1 °F 82.9 °F 69.1 °F 69% 29.95 in 10.0 mi ENE 12.7 mph - N/A   Clear
6:53 AM 80.1 °F 83.2 °F 70.0 °F 71% 29.96 in 10.0 mi ENE 12.7 mph - N/A   Partly Cloudy
7:53 AM 75.9 °F - 71.1 °F 85% 29.99 in 10.0 mi ENE 5.8 mph - 0.01 in   Mostly Cloudy
8:53 AM 81.0 °F 85.8 °F 73.0 °F 77% 29.99 in 10.0 mi ENE 13.8 mph - 0.02 in   Partly Cloudy
9:53 AM 78.1 °F - 71.1 °F 79% 30.03 in 10.0 mi ENE 15.0 mph 26.5 mph 0.01 in Rain Light Rain
10:53 AM 82.9 °F 87.5 °F 71.1 °F 67% 30.04 in 10.0 mi East 17.3 mph - 0.01 in   Mostly Cloudy
11:53 AM 84.9 °F 92.1 °F 73.9 °F 69% 30.04 in 10.0 mi East 21.9 mph 32.2 mph 0.00 in   Mostly Cloudy
12:53 PM 82.0 °F 87.9 °F 73.9 °F 76% 30.03 in 10.0 mi ENE 18.4 mph 33.4 mph 0.03 in Rain Light Rain
1:00 PM 82.0 °F 87.9 °F 73.9 °F 76% 30.02 in 10.0 mi ENE 15.0 mph 24.2 mph 0.00 in Rain Light Rain
1:08 PM 84.9 °F 93.3 °F 75.0 °F 72% 30.02 in 10.0 mi ENE 21.9 mph 27.6 mph 0.00 in   Mostly Cloudy
1:15 PM 86.0 °F 95.1 °F 75.0 °F 70% 30.01 in 10.0 mi East 25.3 mph 32.2 mph 0.01 in   Mostly Cloudy
1:26 PM 84.9 °F 92.1 °F 73.9 °F 69% 30.01 in 10.0 mi ENE 24.2 mph 29.9 mph 0.02 in   Mostly Cloudy
1:36 PM 84.0 °F 90.2 °F 73.0 °F 69% 30.02 in 10.0 mi ENE 23.0 mph 32.2 mph 0.02 in   Mostly Cloudy
1:53 PM 84.0 °F 90.2 °F 73.0 °F 69% 30.02 in 10.0 mi East 25.3 mph 33.4 mph 0.03 in   Mostly Cloudy
2:07 PM 81.0 °F 86.2 °F 73.9 °F 79% 30.01 in 10.0 mi ENE 20.7 mph - 0.00 in Rain Rain
2:53 PM 86.0 °F 93.0 °F 73.0 °F 65% 30.01 in 10.0 mi ENE 26.5 mph 35.7 mph 0.02 in   Scattered Clouds
3:53 PM 84.9 °F 90.1 °F 71.1 °F 63% 30.00 in 10.0 mi East 24.2 mph 33.4 mph N/A   Mostly Cloudy
4:53 PM 86.0 °F 91.5 °F 71.1 °F 61% 30.01 in 10.0 mi ENE 20.7 mph 31.1 mph N/A   Mostly Cloudy
5:53 PM 84.0 °F 88.4 °F 70.0 °F 63% 30.01 in 10.0 mi ENE 24.2 mph 29.9 mph N/A   Mostly Cloudy
6:53 PM 82.0 °F 86.3 °F 71.1 °F 69% 30.03 in 10.0 mi NE 17.3 mph - 0.00 in   Mostly Cloudy
7:12 PM 82.0 °F 86.7 °F 72.0 °F 71% 30.02 in 10.0 mi ENE 16.1 mph 21.9 mph 0.00 in Rain Light Rain
7:46 PM 79.0 °F - 73.0 °F 82% 30.03 in 10.0 mi NE 13.8 mph - 0.00 in   Mostly Cloudy
7:53 PM 79.0 °F - 73.0 °F 82% 30.04 in 10.0 mi NE 9.2 mph - 0.00 in   Mostly Cloudy
8:24 PM 80.1 °F 84.2 °F 73.0 °F 79% 30.03 in 10.0 mi ENE 13.8 mph - 0.01 in Rain Light Rain
8:34 PM 81.0 °F 85.8 °F 73.0 °F 77% 30.03 in 10.0 mi ENE 15.0 mph 25.3 mph 0.01 in   Overcast
8:53 PM 80.1 °F 84.2 °F 73.0 °F 79% 30.04 in 10.0 mi ENE 19.6 mph 25.3 mph 0.01 in Rain Light Rain
9:40 PM 79.0 °F - 73.0 °F 82% 30.05 in 10.0 mi ENE 15.0 mph 24.2 mph 0.00 in Rain Light Rain
9:53 PM 80.1 °F 84.2 °F 73.0 °F 79% 30.06 in 10.0 mi ENE 15.0 mph 24.2 mph 0.00 in   Overcast
10:53 PM 81.0 °F 84.9 °F 71.1 °F 72% 30.06 in 10.0 mi ENE 15.0 mph 29.9 mph N/A   Mostly Cloudy
11:53 PM 80.1 °F 83.8 °F 72.0 °F 76% 30.06 in 10.0 mi ENE 17.3 mph 25.3 mph 0.00 in   Overcast